Estación de Las Puertas

Ultimos registro cada 15 minutos 20
Estación Fecha / Hora Temperatura Humedad Lluvia Velocidad Dirección Radiación Presion
20 Las Puertas 06-05-2026 04:45 7,6 87 0 0 83 0 1016
19 Las Puertas 06-05-2026 04:30 7,8 86 0 0 83 0 1016
18 Las Puertas 06-05-2026 04:15 8 86 0 0 83 0 1015,7
17 Las Puertas 06-05-2026 04:00 8,3 86 0 0 83 0 1015,7
16 Las Puertas 06-05-2026 03:45 8,4 85 0 0 83 0 1015,4
15 Las Puertas 06-05-2026 03:30 8,6 85 0 0 83 0 1015,2
14 Las Puertas 06-05-2026 03:15 8,8 84 0 0 83 0 1015,2
13 Las Puertas 06-05-2026 03:00 9,3 85 0 0 83 0 1015,3
12 Las Puertas 06-05-2026 02:45 9,6 85 0 0 83 0 1015,4
11 Las Puertas 06-05-2026 02:30 9,7 86 0 0,9 115 0 1015,5
10 Las Puertas 06-05-2026 02:15 9,7 86 0 0 39 0 1015,7
9 Las Puertas 06-05-2026 02:00 9,9 87 0 0,9 92 0 1015,6
8 Las Puertas 06-05-2026 01:45 9,8 87 0 0,4 94 0 1015,7
7 Las Puertas 06-05-2026 01:30 9,8 86 0 0,4 93 0 1016
6 Las Puertas 06-05-2026 01:15 9,8 88 0 0 88 0 1016
5 Las Puertas 06-05-2026 01:00 9,2 87 0 0 30 0 1015,9
4 Las Puertas 06-05-2026 00:45 9,2 86 0 0 357 0 1016
3 Las Puertas 06-05-2026 00:30 9,2 86 0 0 357 0 1016,1
2 Las Puertas 06-05-2026 00:15 9,1 85 0 0 360 0 1016,3
1 Las Puertas 06-05-2026 00:00 9,4 84 0 0 67 0 1016